TimeCST,TemperatureF,Dew PointF,Humidity,Sea Level PressureIn,VisibilityMPH,Wind Direction,Wind SpeedMPH,Gust SpeedMPH,PrecipitationIn,Events,Conditions,WindDirDegrees,DateUTC
12:41 AM,71.6,66.2,83,29.87,5.0,SW,5.8,-,N/A,,Overcast,220,2013-02-22 06:41:00
12:53 AM,70.0,66.9,90,29.87,5.0,West,8.1,-,N/A,,Overcast,270,2013-02-22 06:53:00
1:22 AM,69.8,68.0,94,29.88,2.5,NW,3.5,-,0.02,Rain,Heavy Rain,310,2013-02-22 07:22:00
1:25 AM,69.8,68.0,94,29.88,3.0,NW,3.5,-,0.02,Rain,Light Rain,320,2013-02-22 07:25:00
1:41 AM,69.8,66.2,88,29.88,6.0,North,3.5,-,0.02,,Overcast,350,2013-02-22 07:41:00
2:00 AM,69.8,66.2,88,29.88,5.0,Calm,Calm,-,N/A,,Overcast,0,2013-02-22 08:00:00
2:53 AM,69.1,63.0,81,29.86,10.0,NE,6.9,-,N/A,,Overcast,40,2013-02-22 08:53:00
3:38 AM,66.2,60.8,83,29.86,10.0,NE,9.2,-,N/A,,Overcast,40,2013-02-22 09:38:00
3:53 AM,66.9,60.1,79,29.88,10.0,NNE,8.1,-,N/A,,Overcast,20,2013-02-22 09:53:00
4:24 AM,66.2,59.0,78,29.89,10.0,NNE,9.2,-,N/A,,Overcast,30,2013-02-22 10:24:00
4:53 AM,64.9,59.0,81,29.88,10.0,NE,10.4,-,N/A,,Mostly Cloudy,40,2013-02-22 10:53:00
5:53 AM,64.9,59.0,81,29.92,10.0,NNE,9.2,-,N/A,,Overcast,20,2013-02-22 11:53:00
6:53 AM,64.0,57.9,80,29.93,10.0,NE,9.2,-,N/A,,Overcast,40,2013-02-22 12:53:00
7:53 AM,64.0,54.0,70,29.95,10.0,NNE,12.7,-,N/A,,Overcast,30,2013-02-22 13:53:00
8:53 AM,64.9,52.0,63,29.96,10.0,NE,11.5,-,N/A,,Overcast,50,2013-02-22 14:53:00
9:16 AM,62.6,53.6,72,29.99,1.5,Calm,Calm,-,0.15,Rain,Heavy Rain,0,2013-02-22 15:16:00
9:28 AM,60.8,53.6,77,29.96,4.0,NNE,16.1,21.9,0.22,Rain,Light Rain,30,2013-02-22 15:28:00
9:40 AM,60.8,53.6,77,29.98,10.0,NNE,10.4,-,0.23,Rain,Light Rain,20,2013-02-22 15:40:00
9:53 AM,62.1,50.0,65,29.98,10.0,NE,15.0,-,0.23,,Overcast,40,2013-02-22 15:53:00
10:53 AM,64.0,52.0,65,29.97,10.0,NNE,10.4,-,0.00,Rain,Light Rain,30,2013-02-22 16:53:00
11:53 AM,66.9,54.0,63,29.95,10.0,NE,9.2,-,0.00,,Mostly Cloudy,50,2013-02-22 17:53:00
12:53 PM,70.0,48.9,47,29.92,10.0,East,13.8,-,N/A,,Mostly Cloudy,80,2013-02-22 18:53:00
1:38 PM,69.8,46.4,43,29.91,10.0,ENE,10.4,-,N/A,,Overcast,60,2013-02-22 19:38:00
1:53 PM,66.9,48.0,51,29.91,9.0,NE,11.5,-,0.00,Rain,Rain,50,2013-02-22 19:53:00
2:53 PM,66.0,52.0,60,29.90,10.0,NE,6.9,-,0.00,,Overcast,40,2013-02-22 20:53:00
3:53 PM,66.0,46.9,50,29.90,10.0,NE,9.2,-,N/A,,Overcast,50,2013-02-22 21:53:00
4:53 PM,66.0,46.0,48,29.89,10.0,NE,8.1,-,N/A,,Overcast,50,2013-02-22 22:53:00
5:53 PM,64.0,52.0,65,29.90,10.0,North,8.1,-,0.00,,Overcast,10,2013-02-22 23:53:00
6:53 PM,64.0,50.0,60,29.90,10.0,NNE,10.4,-,N/A,,Overcast,20,2013-02-23 00:53:00
7:53 PM,62.1,51.1,67,29.93,10.0,East,6.9,-,0.00,Rain,Light Rain,90,2013-02-23 01:53:00
8:53 PM,60.1,53.1,78,29.95,10.0,NNE,3.5,-,0.00,,Overcast,30,2013-02-23 02:53:00
9:24 PM,60.8,53.6,77,29.94,10.0,NNE,4.6,-,N/A,Thunderstorm,Overcast,30,2013-02-23 03:24:00
9:53 PM,60.1,53.1,78,29.94,10.0,ENE,5.8,-,N/A,Thunderstorm,Overcast,70,2013-02-23 03:53:00
10:00 PM,59.0,53.6,82,29.93,10.0,ENE,5.8,-,N/A,,Mostly Cloudy,70,2013-02-23 04:00:00
10:53 PM,60.1,52.0,75,29.94,10.0,NE,6.9,-,N/A,,Overcast,40,2013-02-23 04:53:00
11:53 PM,60.1,50.0,69,29.93,10.0,North,9.2,-,N/A,,Overcast,10,2013-02-23 05:53:00